Skip Page Navigation
NASA JPL Caltech
NASA Logo - Jet Propulsion Laboratory + View the NASA Portal
+ Center for Near-Earth Object Studies
JPL Home Earth Solar System Stars & Galaxies Technology
JPL Solar System Dynamics
BODIES ORBITS EPHEMERIDES TOOLS PHYSICAL DATA DISCOVERY FAQ SITE MAP
IMPORTANT: The SSD Announcement email list is now available. Major changes are coming in the near future, including possible hostname and/or URL changes. To be notified of such changes, subscribe to this email list.

Please visit this page for more details.


JPL Small-Body Database Browser
Search: [ help ]  
52996 (1998 UL32)
Classification: Main-belt Asteroid          SPK-ID: 2052996
Ephemeris | Orbit Diagram | Orbital Elements | Mission Design | Physical Parameters | Discovery Circumstances | Close-Approach Data ]

[ show orbit diagram ]
Orbital Elements at Epoch 2458600.5 (2019-Apr-27.0) TDB
Reference: JPL 26 (heliocentric ecliptic J2000)
 Element Value Uncertainty (1-sigma)   Units 
e .03562274496353401 3.7057e-08  
a 2.308403922432847 8.1619e-09 au
q 2.2261722382312 8.5727e-08 au
i 7.464495059311845 3.9923e-06 deg
node 56.71186893369149 2.8931e-05 deg
peri .8958159038059066 6.5884e-05 deg
M 306.9755138571774 5.7715e-05 deg
tp 2458789.186183392179
(2019-Nov-01.68618339)
0.00020524 TDB
period 1281.050151777456
3.51
6.7942e-06
1.86e-08
d
yr
n .2810194429160328 1.4904e-09 deg/d
Q 2.390635606634494 8.4526e-09 au
  Orbit Determination Parameters
   # obs. used (total)      1207  
   data-arc span      7706 days (21.10 yr)  
   first obs. used      1998-10-29  
   last obs. used      2019-12-04  
   planetary ephem.      DE431  
   SB-pert. ephem.      SB431-N16  
   condition code      0  
   norm. resid. RMS      .51291  
   source      ORB  
   producer      Otto Matic  
   solution date      2019-Dec-14 05:08:05  

Additional Information
 Earth MOID = 1.23734 au 
 Jupiter MOID = 2.71427 au 
 T_jup = 3.574 
[ show covariance matrix ]

Ephemeris | Orbit Diagram | Orbital Elements | Mission Design | Physical Parameters | Discovery Circumstances | Close-Approach Data ]

Physical Parameter Table
Parameter Symbol Value Units Sigma Reference Notes
absolute magnitude H 15.0   n/a MPO449343  

52996 (1998 UL32)          Discovered 1998-Oct-29 by BAO Schmidt CCD Asteroid Program at Xinglong
Reference: 20030216/Numbers.arcLast Updated: 2004-04-19

[ show close-approach data ]
Alternate Designations
 1998 UL32 = 1998 VT35 = 2000 GY106 
Ephemeris | Orbit Diagram | Orbital Elements | Mission Design | Physical Parameters | Discovery Circumstances | Close-Approach Data ]
ABOUT SSD CREDITS/AWARDS PRIVACY/COPYRIGHT GLOSSARY LINKS
FirstGov 2020-Jan-28 23:36 UT
(server date/time)  
NASA Home Page
Site Manager:   Ryan S. Park
Webmaster  Alan B. Chamberlin